Other Surface Observations
Issued by NWS

Home | Current Version | Previous Version | Text Only | Print | Product List | Glossary On
Versions: 1 2 3 4 5 6 7 8 9 10 11 12 13 14 15 16 17 18 19 20 21 22 23 24 25 26 27 28 29 30 31 32 33 34 35 36 37 38 39 40 41 42 43 44 45 46 47 48 49 50
000
SXUS52 KTAE 041218
OSOTAE
OSOTAE
North Florida/South Alabama/Southwest Georgia Weather Roundup
National Weather Service Tallahassee Florida
800 AM EDT WED MAY 04 2016

Note: "fair" indicates few or no clouds below 12,000 feet with no
significant weather and/or obstructions to visibility.

!FLZ017-115-028-034-025-041300
...North Florida...

CITY           SKY/WX    TMP DP  RH WIND       PRES   REMARKS
TALLAHASSEE    PTSUNNY   69  63  81 N8        29.82R
APALACHICOLA   CLOUDY    69  67  93 N7        29.81R
PERRY          CLOUDY    70  67  89 NW6       29.81S
CROSS CITY       N/A     71  69  93 N5        29.79R
JACKSONVILLE   CLOUDY    72  70  93 W7        29.77S
$$

!FLZ112-006-005-002-011-041300
...Florida Panhandle...

CITY           SKY/WX    TMP DP  RH WIND       PRES   REMARKS
MARIANNA       MOSUNNY   64  59  83 N5        29.83R
BONIFAY        PTSUNNY   62  57  83 NW5       29.87R
PANAMA CITY NW FAIR      64  59  83 N7        29.83R
TYNDALL AFB    PTSUNNY   68  58  71 N9        29.84R
TYND DRONE APT PTSUNNY   68  60  75 N18       29.83R
DE FUNIAK SPR  FAIR      60  55  86 N6        29.87R
EGLIN AFB      MOSUNNY   61  55  81 N9        29.86R
DESTIN         MOSUNNY   65  57  75 N14G20    29.86R
HURLBURT       SUNNY     61  54  76 MISG      29.85R
CRESTVIEW      SUNNY     60  54  80 N8        29.88R
PENSACOLA      SUNNY     62  54  74 N13       29.87R
$$

!ALZ063-066-041300
...South Alabama...

CITY           SKY/WX    TMP DP  RH WIND       PRES   REMARKS
DOTHAN         MOSUNNY   60  55  83 N9        29.88R
OZARK CAIRNS   MOSUNNY   59  56  87 NW7       29.85R
FT RUCKER HELI PTSUNNY   59  54  83 N8        29.85S
RUCKER HELI 3  FAIR      59  54  84 N6        29.87S
RUCKER HELI 2  NOT AVBL
FLORALA APT    SUNNY     59  54  83 VRB3      29.88S
ANDALUSIA      SUNNY     62  53  72 NW7       29.87S
TROY           SUNNY     58  54  86 NW7       29.87S
EUFALA         FAIR      61  53  75 VRB5      29.84S
MOBILE         MOSUNNY   57  53  86 N12       29.91F
$$

!GAZ120>161-041300
...Southwest and South Central Georgia...

CITY           SKY/WX    TMP DP  RH WIND       PRES   REMARKS
THOMASVILLE    FAIR      64  63  94 NW3       29.84R
BAINBRIDGE     MOSUNNY   64  59  82 N5        29.84R
MOODY AFB      CLOUDY    67  64  87 NW5       29.81R
VALDOSTA       CLOUDY    68  66  93 VRB3      29.81R
MOULTRIE       MOSUNNY   66  61  82 N3        29.83R
BLAKELY        SUNNY     63  59  88 CALM      29.85R
ALBANY         MOSUNNY   63  56  78 N5        29.85R
TIFTON         PTSUNNY   65  59  81 N8        29.82R
FITZGERALD     CLOUDY    65  57  75 N7        29.84S
CORDELE        FAIR      64  56  75 N3        29.84S
AMERICUS       FAIR      59  52  77 N7        29.85S
HOMERVILLE     CLOUDY    68  64  88 N3        29.81R
$$

!GMZ750-755-770-775-041300
...Coastal and Buoy Obs...

STATION/POSITION TIME  TEMP    WIND        PRES    VSBY  WAVE
                       AIR SEA DIR/SP/G                  HT/PER
                 (UTC) (F)     (DEG/KT/KT) (MB)    (MI)  (FT/S)
KEATON BEACH     1200   70     360/  8/ 11 1008.7R
CEDAR KEY        1200   75     280/  6/  8 1008.9R
C TOWER          1200   71      20/ 15/ 17 1010.1R
APALACHICOLA BUO 1150   74 75  250/  6/  8 1008.5R         2/ 5
PANAMA CITY BUOY 1150   74 78   20/ 16/ 19 1009.7R         3/ 5
MOBILE BUOY      1200   69 76  360/ 19/ 25 1012.0R
ORANGE BCH AL BU 1150   65 76  360/ 19/ 23 1010.7R         3/ 4
$$




USA.gov is the U.S. government's official web portal to all federal, state and local government web resources and services.